Location: Beddau
(51.5575°N, 3.3561°W)
Time: 02:09:35
(UTC+00:00)

SAR-Lupe-4 - Pass Details

Date: 03 March 2021
Orbit: 481 x 485 km, 98.2° (Epoch: 26 March)

Event Time Altitude Azimuth Distance (km) Brightness Sun altitude
Rises 19:37:53 0° 11° (N) 2,558 7.2 -16.3°
Reaches altitude 10° 19:39:59 10° 7° (N) 1,673 6.3 -16.7°
Maximum altitude 19:43:29 55° 289° (WNW) 589 4.3 -17.2°
Drops below altitude 10° 19:46:59 10° 211° (SSW) 1,660 6.5 -17.7°
Sets 19:49:03 0° 207° (SSW) 2,535 7.4 -18.0°
